Location: Montreal
(45.5087°N, 73.5540°W)
Time: 05:06:26
(UTC-05:00)

ISS - Visible Passes

Search period start: 12 December 2018 00:00
Search period end: 22 December 2018 00:00
Orbit: 401 x 408 km, 51.6° (Epoch: 12 December)

Date Brightness Start Highest point End Pass type
(mag) Time Alt. Az. Time Alt. Az. Time Alt. Az.
12 Dec -2.2 17:34:22 10° WNW 17:37:22 34° SW 17:40:21 10° SSE visible
13 Dec -3.2 16:42:03 10° WNW 16:45:18 61° SSW 16:48:30 10° SE visible
14 Dec -0.7 17:27:07 10° W 17:29:15 16° SW 17:31:21 10° S visible
21 Dec 0.3 06:33:43 10° SE 06:33:54 10° SE 06:34:04 10° SE visible
